EW7517 Weather Reports


time (UTC)temp
C
wind
direction
speed
KPH
gust
KPH
rain 1hr
cm
rain 24hr
cm
rain mn
cm
humidity
%
barometer
mb
20260503195724 28 315 6.4 12.9 0.00 0.00 0.00 33 1010.0
20260503195214 30 270 1.6 12.9 0.00 0.00 0.00 29 1010.0
20260503194704 30 315 3.2 9.7 0.00 0.00 0.00 30 1010.2
20260503194156 30 315 1.6 9.7 0.00 0.00 0.00 30 1010.2
20260503193644 30 0 3.2 12.9 0.00 0.00 0.00 31 1010.5
20260503193134 30 315 3.2 12.9 0.00 0.00 0.00 30 1010.4
20260503192624 30 0 3.2 8.0 0.00 0.00 0.00 31 1010.3
20260503192113 28 0 3.2 9.7 0.00 0.00 0.00 32 1010.6
20260503191606 28 315 6.4 9.7 0.00 0.00 0.00 33 1010.6
20260503191053 28 0 4.8 8.0 0.00 0.00 0.00 33 1010.8
20260503190543 28 315 3.2 12.9 0.00 0.00 0.00 34 1010.7
20260503190253 27 0 4.8 12.9 0.00 0.00 0.00 35 1010.9
20260503185747 27 0 3.2 11.3 0.00 0.00 0.00 36 1010.8
20260503185013 27 0 4.8 11.3 0.00 0.00 0.00 35 1011.0
20260503184503 27 0 4.8 11.3 0.00 0.00 0.00 36 1010.9
20260503183953 27 315 0.0 9.7 0.00 0.00 0.00 36 1011.1
20260503183442 27 0 0.0 9.7 0.00 0.00 0.00 36 1011.3
20260503182932 26 0 1.6 8.0 0.00 0.00 0.00 39 1011.2
20260503182423 26 315 1.6 12.9 0.00 0.00 0.00 37 1011.3
20260503181911 26 0 3.2 12.9 0.00 0.00 0.00 39 1011.3
20260503181402 26 0 3.2 9.7 0.00 0.00 0.00 38 1011.4
20260503180852 26 0 3.2 8.0 0.00 0.00 0.00 40 1011.5
20260503180341 25 0 3.2 8.0 0.00 0.00 0.00 43 1011.5
20260503175833 25 315 1.6 8.0 0.00 0.00 0.00 42 1011.5
20260503175321 25 0 6.4 9.7 0.00 0.00 0.00 44 1011.7
20260503174810 24 0 4.8 9.7 0.00 0.00 0.00 45 1011.8
20260503174300 23 0 1.6 9.7 0.00 0.00 0.00 49 1011.8
20260503173751 23 315 3.2 9.7 0.00 0.00 0.00 51 1011.7
20260503173507 23 315 6.4 9.7 0.00 0.00 0.00 50 1011.8
20260503172730 23 315 3.2 9.7 0.00 0.00 0.00 50 1011.9
20260503172220 23 0 3.2 9.7 0.00 0.00 0.00 52 1011.9
20260503171710 22 315 1.6 9.7 0.00 0.00 0.00 51 1012.0
20260503171420 23 0 6.4 9.7 0.00 0.00 0.00 52 1012.0
20260503170654 22 338 6.4 12.9 0.00 0.00 0.00 51 1011.9
20260503170139 22 0 3.2 12.9 0.00 0.00 0.00 52 1012.0
20260503150756 18 135 0.0 3.2 0.00 0.00 0.00 78 1012.6
20260503150246 17 135 0.0 0.0 0.00 0.00 0.00 82 1012.7
20260503131415 11 135 0.0 0.0 0.00 0.00 0.00 95 1012.0
20260503130903 11 135 0.0 0.0 0.00 0.00 0.00 96 1012.1
20260503130353 10 135 0.0 0.0 0.00 0.00 0.00 96 1012.1
20260503130322 11 135 0.0 0.0 0.00 0.00 0.00 95 1012.1
20260503120154 11 135 0.0 0.0 0.00 0.00 0.00 95 1012.3
20260503110500 12 135 0.0 0.0 0.00 0.00 0.00 93 1012.2
20260503100257 12 135 0.0 0.0 0.00 0.00 0.00 92 1012.0
20260503081424 13 135 0.0 0.0 0.00 0.00 0.00 90 1012.2
20260503080914 13 135 0.0 0.0 0.00 0.00 0.00 89 1012.4
20260503080406 13 135 0.0 0.0 0.00 0.00 0.00 89 1012.6
20260503072753 13 135 0.0 0.0 0.00 0.00 0.00 86 1012.6
20260503072505 14 135 0.0 0.0 0.00 0.00 0.00 85 1012.5
20260503071732 14 135 0.0 0.0 0.00 0.00 0.00 85 1012.4
20260503071447 14 135 0.0 0.0 0.00 0.00 0.00 85 1012.5
20260503070714 14 135 0.0 0.0 0.00 0.00 0.00 84 1012.5
20260503070203 14 135 0.0 0.0 0.00 0.00 0.00 84 1012.5
20260503054430 16 135 0.0 0.0 0.00 0.00 0.00 75 1012.1
20260503053920 16 135 0.0 0.0 0.00 0.00 0.00 74 1012.1
20260503053411 17 135 0.0 1.6 0.00 0.00 0.00 73 1012.0
20260503052901 17 135 0.0 3.2 0.00 0.00 0.00 73 1012.0
20260503052349 17 135 0.0 4.8 0.00 0.00 0.00 73 1012.2
20260503051840 17 135 0.0 4.8 0.00 0.00 0.00 73 1012.2
20260503051553 17 135 1.6 4.8 0.00 0.00 0.00 73 1012.0
20260503050819 17 180 3.2 4.8 0.00 0.00 0.00 72 1012.4
20260503050311 17 180 0.0 6.4 0.00 0.00 0.00 73 1012.2
20260503045759 17 180 3.2 6.4 0.00 0.00 0.00 72 1012.4
20260503045248 17 180 0.0 3.2 0.00 0.00 0.00 72 1012.7
20260503044738 17 180 0.0 4.8 0.00 0.00 0.00 72 1012.6
20260503044228 17 180 1.6 4.8 0.00 0.00 0.00 73 1012.5
20260503043720 17 135 0.0 0.0 0.00 0.00 0.00 73 1012.6
20260503043208 17 135 0.0 0.0 0.00 0.00 0.00 72 1012.6
20260503042703 17 135 0.0 0.0 0.00 0.00 0.00 72 1012.6
20260503042148 17 135 0.0 0.0 0.00 0.00 0.00 72 1012.5
20260503041638 17 135 0.0 0.0 0.00 0.00 0.00 71 1012.4
20260503041129 17 135 0.0 0.0 0.00 0.00 0.00 71 1012.5
20260503040617 17 135 0.0 0.0 0.00 0.00 0.00 71 1012.3
20260503040108 17 135 0.0 0.0 0.00 0.00 0.00 70 1012.3
20260503035558 17 135 0.0 1.6 0.00 0.00 0.00 69 1012.3
20260503035047 17 135 0.0 1.6 0.00 0.00 0.00 69 1012.2
20260503034538 18 135 0.0 0.0 0.00 0.00 0.00 69 1012.3
20260503034028 18 135 0.0 1.6 0.00 0.00 0.00 68 1012.2
20260503033516 18 135 0.0 1.6 0.00 0.00 0.00 67 1012.3
20260503033235 18 135 0.0 1.6 0.00 0.00 0.00 67 1012.1
20260503032456 18 135 0.0 1.6 0.00 0.00 0.00 67 1012.1
20260503031948 18 135 0.0 3.2 0.00 0.00 0.00 67 1011.9
20260503031437 18 135 1.6 4.8 0.00 0.00 0.00 67 1012.1
20260503030926 18 135 0.0 6.4 0.00 0.00 0.00 67 1011.7
20260503030417 18 158 1.6 6.4 0.00 0.00 0.00 67 1011.8
20260503025905 18 180 1.6 12.9 0.00 0.00 0.00 66 1011.8
20260503025356 18 135 4.8 16.1 0.00 0.00 0.00 65 1011.9
20260503024845 19 135 6.4 16.1 0.00 0.00 0.00 65 1012.0
20260503024334 19 135 6.4 14.5 0.00 0.00 0.00 65 1012.0
20260503023825 19 158 4.8 14.5 0.00 0.00 0.00 64 1011.9
20260503023315 19 180 6.4 16.1 0.00 0.00 0.00 63 1012.0
20260503023030 20 180 6.4 24.1 0.00 0.00 0.00 62 1011.9
20260503022518 20 180 8.0 24.1 0.00 0.00 0.00 60 1012.0
20260503021744 21 180 6.4 22.5 0.00 0.00 0.00 59 1011.8
20260503021234 21 180 6.4 16.1 0.00 0.00 0.00 56 1011.8
20260503020725 21 180 6.4 14.5 0.00 0.00 0.00 55 1011.8
20260503020215 22 225 3.2 9.7 0.00 0.00 0.00 52 1011.3
20260503015703 22 270 1.6 6.4 0.00 0.00 0.00 51 1011.3
20260503015153 23 315 0.0 4.8 0.00 0.00 0.00 52 1011.2
20260503015127 23 315 0.0 3.2 0.00 0.00 0.00 51 1011.2
20260503014356 23 315 0.0 3.2 0.00 0.00 0.00 51 1011.0
20260503013625 23 315 0.0 3.2 0.00 0.00 0.00 51 1011.1
20260503013113 23 315 0.0 6.4 0.00 0.00 0.00 51 1011.1
20260503012602 23 315 0.0 6.4 0.00 0.00 0.00 50 1011.0
20260503012052 23 315 3.2 3.2 0.00 0.00 0.00 50 1011.1
20260503011543 23 315 0.0 1.6 0.00 0.00 0.00 49 1010.9
20260503011034 23 315 0.0 6.4 0.00 0.00 0.00 50 1011.0
20260503010523 23 315 0.0 6.4 0.00 0.00 0.00 49 1011.0
20260503010013 23 315 3.2 6.4 0.00 0.00 0.00 50 1011.0
20260503005502 23 315 0.0 6.4 0.00 0.00 0.00 48 1011.0
20260503004952 23 0 0.0 9.7 0.00 0.00 0.00 49 1011.1
20260503004443 23 315 3.2 9.7 0.00 0.00 0.00 48 1011.0
20260503003931 23 0 3.2 6.4 0.00 0.00 0.00 48 1011.1
20260503003421 23 315 3.2 6.4 0.00 0.00 0.00 49 1011.0
20260503002912 23 315 1.6 6.4 0.00 0.00 0.00 49 1011.1
20260503002401 23 315 0.0 8.0 0.00 0.00 0.00 49 1011.1
20260503001852 23 315 3.2 11.3 0.00 0.00 0.00 50 1011.2
20260503001340 22 315 3.2 11.3 0.00 0.00 0.00 49 1011.3
20260503000830 23 315 0.0 6.4 0.00 0.00 0.00 49 1011.0
20260503000321 22 0 0.0 4.8 0.00 0.00 0.00 49 1011.1
20260503000032 22 315 3.2 4.8 0.00 0.00 0.00 49 1011.3
20260502235304 22 0 3.2 12.9 0.00 0.00 0.00 50 1011.4
20260502234750 22 0 3.2 12.9 0.00 0.00 0.00 49 1011.4
20260502234240 22 315 3.2 8.0 0.00 0.00 0.00 50 1011.4
20260502233729 21 315 6.4 9.7 0.00 0.00 0.00 51 1011.6
20260502233219 21 315 0.0 9.7 0.00 0.00 0.00 51 1011.6
20260502232711 21 315 3.2 9.7 0.00 0.00 0.00 51 1011.7
20260502232159 21 0 4.8 11.3 0.00 0.00 0.00 51 1011.8
20260502231654 21 315 0.0 11.3 0.00 0.00 0.00 51 1011.9
20260502231139 21 0 3.2 8.0 0.00 0.00 0.00 52 1011.9
20260502230629 21 315 3.2 9.7 0.00 0.00 0.00 52 1011.9
20260502230120 20 0 4.8 9.7 0.00 0.00 0.00 53 1012.0
20260502225834 21 338 4.8 8.0 0.00 0.00 0.00 53 1012.0
20260502225058 20 315 0.0 9.7 0.00 0.00 0.00 53 1012.3
20260502224549 20 338 3.2 12.9 0.00 0.00 0.00 54 1012.3
20260502224038 20 338 8.0 12.9 0.00 0.00 0.00 54 1012.3
20260502223530 20 315 4.8 6.4 0.00 0.00 0.00 53 1012.3
20260502223017 20 315 3.2 9.7 0.00 0.00 0.00 52 1012.6
20260502222508 21 315 3.2 11.3 0.00 0.00 0.00 52 1012.7
20260502221957 20 315 1.6 11.3 0.00 0.00 0.00 54 1012.7
20260502221447 20 315 1.6 6.4 0.00 0.00 0.00 54 1012.7
20260502220938 20 315 4.8 6.4 0.00 0.00 0.00 54 1012.9
20260502220427 20 315 3.2 12.9 0.00 0.00 0.00 54 1013.0
20260502215917 20 315 3.2 12.9 0.00 0.00 0.00 53 1013.1
20260502215408 20 0 4.8 9.7 0.00 0.00 0.00 52 1013.0
20260502214857 21 0 3.2 8.0 0.00 0.00 0.00 50 1013.1
20260502214348 21 0 3.2 8.0 0.00 0.00 0.00 50 1013.2
20260502213836 21 315 1.6 9.7 0.00 0.00 0.00 50 1013.2
20260502213553 21 0 3.2 9.7 0.00 0.00 0.00 50 1013.4
20260502212816 21 315 4.8 11.3 0.00 0.00 0.00 50 1013.3
20260502212306 21 0 3.2 16.1 0.00 0.00 0.00 50 1013.6
20260502211756 21 0 4.8 16.1 0.00 0.00 0.00 51 1013.8
20260502211452 20 0 3.2 11.3 0.00 0.00 0.00 52 1013.8
20260502211336 21 338 11.3 16.1 0.00 0.00 0.00 52 1013.5
20260502210226 21 0 6.4 11.3 0.00 0.00 0.00 52 1013.9
20260502205716 20 0 3.2 8.0 0.00 0.00 0.00 52 1013.8
20260502205206 20 0 0.0 8.0 0.00 0.00 0.00 52 1014.0
20260502204654 20 0 0.0 6.4 0.00 0.00 0.00 54 1014.3
20260502204144 19 0 1.6 8.0 0.00 0.00 0.00 56 1014.4
20260502203634 19 315 1.6 12.9 0.00 0.00 0.00 54 1014.3
20260502203343 20 315 8.0 12.9 0.00 0.00 0.00 52 1014.4
20260502202616 20 0 3.2 9.7 0.00 0.00 0.00 52 1014.3
20260502202104 20 0 4.8 9.7 0.00 0.00 0.00 53 1014.5
20260502201821 20 0 1.6 6.4 0.00 0.00 0.00 53 1014.6
20260502201043 19 0 0.0 8.0 0.00 0.00 0.00 55 1014.7
20260502200533 18 0 3.2 8.0 0.00 0.00 0.00 57 1014.8
20260502200024 18 315 3.2 8.0 0.00 0.00 0.00 55 1014.7